Regional Weather Roundup
Issued by NWS

Home | Current Version | Previous Version | Text Only | Print | Product List | Glossary Off
Versions: 1 2 3 4 5 6 7 8 9 10 11 12 13 14 15 16 17 18 19 20 21 22 23 24 25 26 27 28 29 30 31 32 33 34 35 36 37 38 39 40 41 42 43 44 45 46 47 48 49 50

693
ASUS45 KSLC 122010
RWRUT

UTAH REGIONAL WEATHER ROUNDUP
NATIONAL WEATHER SERVICE SALT LAKE CITY UT
100 PM MST FRI FEB 12 2016

UTZ001>011-023>025-122100-

NORTHERN UTAH

CITY           SKY/WX    TMP DP  RH WIND       PRES   REMARKS
BRIGHAM CITY   CLOUDY    26  24  93 CALM      30.43F
HILL AFB       MOSUNNY   32  28  87 W2        30.39F FOG
LOGAN          CLOUDY    22  22 100 NW3       30.41F FOG
OGDEN          CLOUDY    29  26  89 NW6       30.40F FOG     WCI  23
PROVO AIRPORT  FOG       25  21  86 CALM      30.40F VSB 1/8
SALT LAKE CITY CLOUDY    31  27  85 N3        30.41F FOG
VERNAL         SUNNY     31  20  63 CALM      30.40F HAZE
WENDOVER       CLOUDY    30  25  80 CALM      30.42F
HEBER CITY     MOSUNNY   36  23  60 CALM      30.34F
WEST JORDAN    PTSUNNY   34  28  80 NW3       30.40F

$$

UTZ012>022-026-027-122100-

SOUTHERN/CENTRAL UTAH

CITY           SKY/WX    TMP DP  RH WIND       PRES   REMARKS
BLANDING       SUNNY     44  28  54 CALM      30.47F
BRYCE CANYON   SUNNY     42  24  49 SE8       30.42F
CEDAR CITY     SUNNY     42  26  53 NE5       30.32F
DELTA          CLOUDY    19  18  95 CALM      30.40F VSB 1
HANKSVILLE     SUNNY     46  32  57 CALM      30.43F
MILFORD        MOSUNNY   18  15  88 CALM      30.37F FOG
MOAB/CYNLANDS  SUNNY     41  31  67 NW8       30.39F
PRICE          SUNNY     42  27  55 S3        30.40F
ST GEORGE      PTCLDY    57  28  33 S3        30.30F
KANAB          SUNNY     64  30  27 E12       30.35F

$$

REGIONAL REPORTS     COLORADO/ARIZONA

CITY           SKY/WX    TMP DP  RH WIND       PRES   REMARKS
CRAIG, CO      MIX PCPN  30  21  69 SW6       30.39F WCI  24
GRAND JUNCTION SUNNY     44  26  49 E3        30.39F
RIFLE          SUNNY     40  18  41 CALM      30.40F
MONTROSE       SUNNY     47  20  34 E3        30.40F
CORTEZ         SUNNY     50  23  34 S3        30.39F
PAGE, AZ       SUNNY     52  32  46 NE6       30.37F
GRAND CANYON   SUNNY     66  12  12 S7        30.38F
KINGMAN        SUNNY     70  22  16 N6        30.24F
FLAGSTAFF      SUNNY     59  17  19 SE7       30.39F

$$

REGIONAL REPORTS    NEVADA/IDAHO/WYOMING

CITY           SKY/WX    TMP DP  RH WIND       PRES   REMARKS
LAS VEGAS, NV  MOSUNNY   68  22  17 NE5       30.19F
ELY            MOSUNNY   39  23  52 S12       30.33F WCI  32
ELKO           PTSUNNY   30  19  63 E3        30.37F
POCATELLO, ID  CLOUDY    40  26  57 CALM      30.33F
BURLEY           N/A    N/A N/A N/A MISG      30.28F
EVANSTON, WY   CLOUDY    40  18  41 SW6       30.35F
ROCK SPRINGS   SUNNY     47  21  35 W10       30.33F
KEMMERER       CLOUDY    45  18  33 CALM      30.35F

$$




USA.gov is the U.S. government's official web portal to all federal, state and local government web resources and services.